Vertical_Velocity
-1 -2 5 10 -1 -1 -1 -1 2 -1 -2 0 -3 6 1 -4 2 -1 -2 1 -1 -0 3 -1 3 -2 -2 -3 -1 0 -1 1 0 -1 -1 -0 -1 -3 -2 0 1 0 -0 -1
-0 4 -3 0 1 1 -2 -1 0 -1 -1 -2 -2 9 4 -2 1 -1 -1 1 -2 1 1 2 1 1 -1 -1 -1 -1 -0 -1 -0 -0 -2 -2 -2 -4 -2 -1 -1 0 -1 -1
0 1 1 1 -0 0 -1 -1 -1 -2 -2 -1 -1 7 7 -3 -2 2 1 2 2 -0 1 4 2 2 1 -0 1 0 0 1 1 1 0 -0 -1 -1 2 0 -1 -3 -1 -1
-0 -0 1 1 -0 -0 0 -1 -0 -0 -2 -2 3 -6 7 -5 -3 1 3 2 2 2 -0 1 2 2 3 2 0 1 2 -0 0 1 1 -0 0 2 1 0 2 1 -2 -2
2 1 1 -1 1 0 2 0 -1 -1 -1 -2 5 -13 8 -2 -1 0 2 1 1 1 -1 0 1 2 0 -0 -1 1 1 1 2 1 -0 -1 1 2 3 1 2 0 1 -2
2 1 -0 0 -0 -0 1 0 -1 -1 -1 -0 0 -4 7 -4 2 -0 0 0 3 2 1 0 -1 -2 -0 0 0 1 2 -2 -0 0 0 1 1 1 1 -2 -0 1 1 1
0 0 -1 -0 0 -1 -0 0 -3 -5 -1 -2 -1 -0 2 0 -1 3 3 1 0 2 2 1 -1 0 -0 -0 1 1 0 -4 -1 -1 -0 1 1 -2 -0 1 -0 1 2 2
1 -0 -0 2 -0 -1 -1 -1 -1 -7 -2 -0 2 1 1 0 0 -0 0 2 2 2 0 -0 3 2 1 1 -0 -1 -1 -1 0 1 -0 -1 -2 -1 -1 -2 0 -1 -3 -1
0 -2 -1 -2 -1 0 3 0 0 -2 1 -1 1 2 0 2 1 -0 1 1 1 -1 0 2 3 1 0 -1 -0 0 0 1 2 1 -0 -1 -2 -1 -1 -1 -2 -3 -2 -4
1 -1 -0 1 -0 1 1 2 2 1 -6 -1 2 1 -0 -1 -0 1 -0 -0 -1 -0 0 -0 -0 0 1 2 1 2 3 2 0 -0 -0 -0 -2 -2 -2 -4 -4 -3 -2 -6
0 0 1 -0 1 0 1 2 -0 -2 -1 -4 0 3 3 -0 -0 0 1 0 1 1 -0 0 -0 0 2 3 1 1 1 -1 -0 -1 -2 -3 -3 -4 -3 -5 -5 -5 -4 -6
-1 -0 -2 -0 -0 -0 -0 0 -0 -1 1 -0 -2 5 1 -2 1 1 1 -0 -0 -1 -1 1 1 0 0 1 0 -0 -1 -3 -3 -1 -2 -1 -2 -3 -2 -1 -1 -5 -7 -2
-0 1 0 0 -0 -0 0 0 1 -1 -0 6 -5 3 -0 -2 0 0 -2 -2 -1 -0 0 1 2 1 0 -1 -2 1 -0 -1 -0 0 -1 1 -1 -3 -4 -4 -4 -4 -5 -2
-0 -0 -1 -1 -0 0 -1 -0 0 -1 -1 -1 11 0 -8 -1 -2 -0 -1 -1 -1 -0 1 1 2 1 1 0 0 -1 -3 -3 -1 -0 -1 -2 -2 -3 -3 -3 -4 -5 -3 -6
0 1 -0 -1 0 0 0 -2 -0 1 -0 -4 7 0 1 -2 -2 -1 -1 -2 -1 -0 0 1 1 1 0 -0 -1 -1 -1 1 0 -3 -3 -2 -3 -4 -5 -3 -2 -2 -3 -2
0 1 1 1 -1 -1 3 1 -1 -1 0 0 -2 4 -2 -1 0 -0 -2 -2 0 1 1 0 -1 -0 -0 1 2 -0 -2 -2 -3 -0 -2 -3 -1 -2 -3 -2 -1 0 -2 -2
-1 -2 -2 2 -0 -1 3 3 -0 0 0 -3 -3 -2 0 1 2 0 -0 1 -0 -2 2 0 -1 -1 -2 -3 -2 -2 -2 -2 -1 -1 0 -2 -5 -4 -2 -0 -0 -2 0 -0
-1 -2 -2 -1 -3 -0 1 -0 -1 -1 -2 -2 -2 -0 2 1 2 -2 -5 0 0 -2 -3 -1 -3 -4 -2 -0 -1 -1 -3 -1 -2 -3 -3 -5 -5 -4 -1 0 -2 -1 -1 -3
-3 -3 -6 -5 -2 -0 2 -2 -2 -4 5 -0 0 1 -1 -3 3 3 -3 -3 -4 -5 -3 -3 -2 -1 -1 -1 -1 -2 -3 -2 -2 -2 -2 -3 -3 -1 -1 0 0 2 -1 1
-2 -0 -1 -4 -4 -2 -0 -2 -3 -3 11 1 -0 -1 1 1 -3 2 2 3 6 3 -0 -1 -2 -1 -2 -4 -3 -3 -2 -1 -2 -2 -1 0 -3 -0 -3 -1 -1 2 -3 1
-2 -3 -3 -6 -6 4 -2 -1 -2 -2 -7 2 1 1 -2 -1 -1 2 3 4 -4 -5 -1 -0 1 -2 -2 -3 -2 -2 -1 -1 -2 -1 -1 1 -1 -6 -4 2 -3 -0 2 1
-2 -6 -4 -3 -6 -6 2 -1 -2 0 -1 -2 -4 -2 1 2 4 1 1 -3 -3 -4 -2 -1 -1 -1 -4 -3 -3 -1 -1 0 0 -0 -1 -0 -2 -4 -1 0 1 -2 -1 -0
-4 -6 -4 -4 -1 -2 -1 -1 -2 -1 -0 -3 -1 -2 -1 -0 1 -1 -1 -2 -3 -0 1 -1 -1 -1 -5 -1 -4 1 -0 0 2 -1 1 -0 1 -2 -1 0 2 2 -1 -1
0 -6 -3 -10 2 -4 -2 1 -0 -5 -6 -5 -2 -1 1 3 -2 0 -3 -4 -2 -2 -2 -3 -4 -3 0 -3 -1 -3 -3 0 -3 -1 2 -1 1 2 -2 -3 -2 0 2 -1
-5 -2 -4 0 -4 -3 -1 -1 -2 3 5 3 3 3 2 0 -2 -2 -2 -3 -3 -3 -3 -4 -4 -2 -2 -1 -2 -2 -2 -3 0 1 0 0 0 -0 1 -1 -2 -1 -3 -1
-5 -3 -6 -5 -3 -4 -0 3 0 1 -1 -1 -1 -1 -5 -4 -2 -1 -0 -6 -1 -1 -2 -3 -6 -3 -2 -1 -2 -0 -3 -1 -1 1 2 0 1 0 -1 2 3 -3 -1 1
Height
5826 5831 5836 5841 5840 5843 5846 5846 5847 5847 5846 5847 5847 5851 5848 5845 5845 5843 5842 5841 5840 5838 5837 5834 5832 5830 5827 5826 5825 5823 5820 5818 5815 5813 5811 5809 5808 5806 5804 5802 5799 5796 5793 5790
5824 5828 5832 5835 5837 5839 5842 5841 5842 5842 5842 5842 5843 5846 5845 5841 5840 5838 5837 5835 5833 5832 5830 5828 5826 5822 5821 5819 5817 5815 5813 5810 5808 5805 5803 5800 5798 5795 5793 5791 5788 5784 5781 5777
5822 5826 5828 5830 5832 5834 5835 5836 5837 5837 5837 5837 5837 5840 5840 5836 5834 5833 5831 5829 5827 5825 5823 5821 5818 5816 5813 5812 5810 5807 5804 5802 5799 5796 5794 5791 5788 5785 5783 5780 5775 5772 5768 5764
5817 5820 5823 5826 5828 5830 5831 5832 5832 5832 5832 5832 5833 5830 5835 5830 5828 5826 5824 5822 5820 5818 5816 5814 5812 5809 5807 5804 5802 5799 5796 5793 5791 5788 5785 5781 5778 5775 5771 5767 5762 5758 5753 5747
5815 5817 5819 5822 5824 5825 5827 5827 5827 5827 5826 5826 5828 5823 5827 5825 5822 5820 5817 5816 5813 5810 5809 5807 5805 5803 5800 5797 5794 5790 5786 5784 5781 5778 5774 5770 5767 5763 5758 5753 5747 5742 5736 5731
5810 5813 5816 5818 5820 5821 5821 5822 5821 5821 5822 5821 5821 5820 5818 5817 5813 5813 5811 5809 5807 5805 5802 5800 5798 5796 5792 5789 5785 5781 5778 5774 5771 5766 5762 5758 5753 5748 5742 5736 5731 5726 5720 5714
5808 5810 5812 5814 5815 5816 5816 5817 5816 5816 5816 5816 5814 5813 5812 5809 5808 5806 5804 5803 5801 5798 5796 5793 5791 5787 5783 5780 5776 5772 5767 5763 5758 5753 5748 5743 5737 5731 5725 5719 5714 5709 5704 5699
5804 5808 5809 5811 5811 5812 5812 5813 5812 5809 5810 5809 5808 5806 5805 5803 5801 5799 5797 5795 5792 5790 5788 5785 5782 5778 5774 5769 5765 5760 5755 5750 5745 5739 5733 5727 5721 5715 5709 5703 5697 5691 5686 5679
5802 5804 5806 5807 5807 5808 5808 5806 5806 5804 5803 5802 5802 5801 5798 5796 5794 5792 5790 5788 5784 5783 5780 5776 5773 5768 5763 5758 5753 5748 5743 5737 5731 5725 5719 5712 5706 5700 5694 5687 5681 5674 5666 5659
5799 5800 5801 5802 5802 5802 5801 5802 5801 5799 5796 5796 5795 5793 5791 5790 5787 5785 5782 5780 5778 5774 5770 5766 5761 5756 5752 5746 5741 5735 5729 5723 5717 5711 5705 5698 5691 5685 5678 5670 5663 5655 5647 5638
5794 5796 5798 5797 5797 5797 5797 5796 5795 5793 5792 5789 5788 5788 5785 5782 5780 5778 5775 5772 5769 5764 5759 5754 5749 5744 5739 5734 5727 5721 5715 5709 5703 5697 5691 5683 5676 5668 5660 5652 5644 5635 5627 5617
5791 5792 5793 5793 5792 5792 5791 5790 5789 5787 5786 5783 5781 5781 5778 5774 5771 5769 5766 5762 5757 5752 5747 5743 5737 5732 5726 5720 5714 5708 5702 5697 5690 5683 5676 5668 5659 5651 5643 5634 5624 5614 5605 5593
5786 5787 5787 5787 5788 5787 5785 5784 5782 5780 5779 5778 5774 5774 5768 5765 5762 5758 5754 5749 5744 5740 5735 5730 5724 5719 5713 5707 5702 5697 5691 5684 5676 5668 5660 5651 5642 5633 5624 5615 5604 5593 5582 5571
5782 5782 5782 5782 5782 5781 5780 5778 5776 5774 5772 5770 5768 5764 5758 5754 5749 5745 5740 5736 5731 5726 5722 5717 5712 5707 5702 5697 5691 5684 5677 5669 5661 5652 5643 5633 5624 5615 5606 5596 5585 5573 5561 5551
5778 5778 5777 5776 5776 5775 5773 5771 5769 5767 5764 5760 5758 5754 5749 5744 5740 5735 5729 5724 5720 5715 5711 5706 5701 5695 5690 5684 5677 5670 5662 5653 5644 5636 5626 5617 5608 5598 5588 5577 5565 5554 5543 5534
5772 5772 5771 5770 5769 5767 5766 5764 5760 5757 5753 5750 5746 5743 5738 5734 5729 5724 5720 5716 5711 5706 5700 5694 5688 5682 5676 5670 5662 5654 5646 5637 5629 5620 5610 5600 5590 5580 5570 5559 5548 5538 5529 5520
5767 5765 5764 5764 5762 5759 5759 5755 5751 5747 5744 5741 5737 5733 5729 5724 5719 5714 5711 5706 5700 5694 5688 5681 5675 5669 5663 5655 5648 5640 5632 5623 5613 5603 5593 5583 5573 5564 5553 5542 5533 5524 5515 5505
5760 5758 5757 5755 5753 5751 5749 5745 5741 5738 5736 5732 5728 5724 5720 5715 5711 5704 5699 5693 5687 5681 5675 5669 5662 5655 5648 5641 5633 5625 5616 5607 5597 5587 5576 5566 5556 5547 5537 5528 5519 5510 5501 5491
5753 5751 5748 5747 5744 5743 5739 5736 5733 5730 5729 5724 5720 5716 5711 5707 5702 5693 5687 5681 5675 5670 5663 5656 5649 5642 5634 5627 5619 5610 5600 5590 5580 5570 5559 5548 5538 5530 5523 5515 5506 5497 5488 5479
5746 5744 5742 5739 5736 5733 5731 5729 5726 5723 5721 5716 5711 5707 5702 5697 5692 5684 5677 5671 5666 5658 5651 5645 5636 5629 5621 5612 5603 5593 5583 5573 5563 5552 5542 5532 5524 5517 5510 5502 5493 5485 5475 5469
5738 5736 5735 5732 5729 5728 5724 5721 5718 5714 5713 5705 5701 5696 5690 5685 5679 5673 5666 5659 5651 5644 5637 5629 5620 5612 5603 5595 5586 5575 5565 5555 5545 5535 5527 5519 5512 5505 5497 5490 5481 5473 5466 5459
5732 5731 5729 5726 5723 5722 5717 5713 5709 5705 5699 5694 5690 5685 5679 5673 5667 5660 5653 5645 5637 5629 5621 5613 5604 5594 5585 5576 5567 5558 5546 5537 5529 5521 5514 5507 5500 5493 5486 5478 5471 5463 5457 5451
5727 5725 5723 5720 5716 5712 5708 5704 5699 5695 5690 5684 5679 5673 5667 5661 5655 5647 5640 5630 5622 5613 5605 5596 5587 5578 5567 5558 5547 5538 5528 5521 5515 5509 5503 5497 5490 5483 5475 5467 5461 5456 5450 5444
5720 5717 5715 5712 5710 5704 5699 5693 5688 5683 5679 5673 5667 5661 5654 5647 5640 5633 5623 5615 5606 5598 5589 5580 5571 5561 5550 5539 5529 5521 5515 5510 5504 5499 5493 5487 5481 5474 5466 5459 5453 5448 5444 5438
5714 5710 5707 5705 5700 5694 5689 5683 5679 5674 5668 5662 5655 5649 5642 5635 5627 5619 5609 5600 5592 5582 5573 5563 5553 5544 5535 5526 5518 5512 5506 5502 5496 5491 5486 5480 5473 5466 5460 5453 5447 5443 5438 5429
5706 5703 5699 5695 5691 5685 5680 5673 5667 5662 5656 5650 5644 5636 5629 5622 5613 5604 5595 5586 5577 5567 5557 5547 5538 5531 5524 5516 5510 5505 5500 5495 5489 5485 5479 5473 5466 5459 5454 5449 5444 5437 5431 5426